Orbital Elements at Epoch 2459200.5 (2020-Dec-17.0) TDB
Reference: JPL 4 (heliocentric ecliptic J2000)
Element | Value | Uncertainty (1-sigma) | Units |
e | .1553495198218169 | 0.00013204 | |
a | 1.175181697709128 | 0.00019114 | au |
q | .9926177852666274 | 6.2731e-06 | au |
i | 8.045104222549265 | 0.0063776 | deg |
node | 207.6382308120994 | 2.0592e-05 | deg |
peri | 207.5788726234897 | 0.0073704 | deg |
M | 23.77475082557278 | 0.00025982 | deg |
tp | 2459169.769513992420 (2020-Nov-16.26951399) | 0.0078123 | TDB |
period | 465.3245387888193 1.27 | 0.11352 0.0003108 | d yr |
n | .7736535901094628 | 0.00018875 | deg/d |
Q | 1.357745610151629 | 0.00022083 | au |
|
| | Orbit Determination Parameters
Additional Information
|